National Weather Service Raw Text Product

Displaying AFOS PIL: RWRIA Received: 2018-06-14 09:00 UTC


934 
ASUS43 KDMX 140906
RWRIA 

WEATHER ROUNDUP FOR IOWA
NATIONAL WEATHER SERVICE DES MOINES IA
400 AM CDT THU JUN 14 2018

NOTE: "FAIR" INDICATES FEW OR NO CLOUDS BELOW 12,000 FEET WITH NO
SIGNIFICANT WEATHER AND/OR OBSTRUCTIONS TO VISIBILITY.

* - THESE STATIONS ARE NOT NWS STATIONS...THUS NOT UNDER NWS
QUALITY CONTROL.  THEY ALSO DO NOT REPORT WEATHER SUCH 
AS PRECIPITATION OR FOG.  

IAZ001>003-012>014-020>022-031>034-043>046-141000-
   NORTHWEST IOWA
  
CITY           SKY/WX    TMP DP  RH WIND       PRES   REMARKS
CARROLL *      CLOUDY    64  61  88 E8        29.95R                  
CHEROKEE *     TSTM      65  59  81 E7        29.91F                  
DENISON *      CLOUDY    70  55  60 SE13      29.93S                  
LE MARS *      CLOUDY   N/A N/A N/A SE6       29.87F                  
ORANGE CITY *  CLOUDY    64  57  77 SE9       29.87F                  
SHELDON *      CLOUDY    64  59  82 MISG      29.87F                  
SIOUX CITY     CLOUDY    67  57  70 SE6       29.88F                  
SPENCER        CLOUDY    67  55  65 SE9       29.94F                  
STORM LAKE *   CLOUDY    66  55  68 SE15      29.93F                  
$$
 
IAZ055>058-069>071-079>083-090>094-141000-
   SOUTHWEST IOWA
  
CITY           SKY/WX    TMP DP  RH WIND       PRES   REMARKS
ATLANTIC *     CLOUDY    68  57  68 E5        29.94S                  
AUDUBON *      PTCLDY    66  57  72 SE5       29.96R                  
CLARINDA *     CLOUDY    70  55  60 S7        29.95F                  
COUNCIL BLFS * PTCLDY    66  63  88 SE10      29.90F                  
CRESTON *      PTCLDY    66  57  72 SE9       29.98S                  
HARLAN  *      CLOUDY    66  57  72 SE7       29.96S                  
LAMONI         CLOUDY    66  55  67 SE8       29.98F                  
RED OAK *      CLOUDY    68  55  64 MISG      29.92F                  
SHENANDOAH *   PTCLDY    70  57  64 SE12      29.91F                  
$$
 
IAZ047>049-059>061-072>074-084-141000-
   CENTRAL IOWA
  
CITY           SKY/WX    TMP DP  RH WIND       PRES   REMARKS
AMES           TSTM      60  58  92 E8        30.01R FOG              
ANKENY *       CLOUDY    68  55  64 SE8G15    29.98F                  
BOONE *        CLOUDY    61  57  88 SE17      29.98F                  
CHARITON *     CLOUDY    66  55  68 SE9       29.99F                  
DES MOINES     CLOUDY    69  54  58 SE14      29.96F                  
GRINNELL*      MOCLDY    64  53  67 SE7       30.04R                  
KNOXVILLE *    MOCLDY    66  52  59 SE12      29.99F                  
MARSHALLTOWN   CLOUDY    65  57  75 E8        30.01R                  
NEWTON *       CLOUDY    64  54  68 SE10      30.00F                  
PELLA *        MOCLDY    64  55  74 SE6       30.02S                  
PERRY *        CLOUDY    67  59  75 E10       29.98R                  
$$
 
IAZ004>006-015-016-023>025-035-036-141000-
   NORTH CENTRAL IOWA
  
CITY           SKY/WX    TMP DP  RH WIND       PRES   REMARKS
ALGONA *       CLOUDY    66  54  63 SE9       29.96F                  
CLARION *      CLOUDY    66  54  63 SE12      29.99F                  
ESTHERVILLE    CLOUDY    63  55  75 SE7       29.95F                  
FORT DODGE *   CLOUDY    62  57  83 SE8       29.98F                  
MASON CITY     PTCLDY    61  55  81 SE7       30.02F                  
FOREST CITY *  FAIR      63  55  77 SE6       29.99F                  
WEBSTER CITY * CLOUDY    63  57  82 E6        29.97F                  
IOWA FALLS *   LGT RAIN  64  58  83 CALM      30.05R                  
$$

IAZ007>011-017>019-026>030-037>042-050>054-066-141000-
   NORTHEAST IOWA
  
CITY           SKY/WX    TMP DP  RH WIND       PRES   REMARKS
CEDAR RAPIDS   FAIR      62  58  86 SE5       30.03F                  
CHARLES CITY * FAIR      61  55  82 SE8       30.03F                  
CLINTON *      FAIR      62  61  96 NE5       30.07S                  
DECORAH *      FAIR      63  57  82 SE5       30.04F                  
DUBUQUE        FAIR      63  54  72 CALM      30.07F                  
MONTICELLO *   FAIR      63  59  88 CALM      30.04F                  
OELWEIN *      FAIR      61  57  88 SE6       30.05S                  
WATERLOO       FAIR      59  56  89 SE3       30.02S                  
$$
 
IAZ064-065-067-068-078-141000-
   EAST CENTRAL IOWA
  
CITY           SKY/WX    TMP DP  RH WIND       PRES   REMARKS
DAVENPORT      FAIR      62  58  86 CALM      30.07F                  
IOWA CITY      FAIR      64  57  78 SE3       30.04F                  
MUSCATINE *      N/A    N/A N/A N/A MISG        N/A                   
QUAD CITIES    FAIR      63  58  83 CALM      30.05F                  
$$
 
IAZ062-063-075>077-085>089-095>099-141000-
   SOUTHEAST IOWA
  
CITY           SKY/WX    TMP DP  RH WIND       PRES   REMARKS
BURLINGTON     CLOUDY    64  52  64 E3        30.05S                  
FAIRFIELD *    MOCLDY    63  54  72 SE8       30.04F                  
FORT MADISON * CLOUDY    64  54  68 S3        30.07S                  
KEOKUK *       CLOUDY    64  54  68 SE7       30.05F                  
OSKALOOSA *    LGT RAIN  62  56  82 SE8       30.04R                  
CENTERVILLE *    N/A     64  54  68 CALM      30.04S                  
OTTUMWA        CLOUDY    65  52  62 SE10      30.03S                  
WASHINGTON *   CLOUDY    61  57  88 SE7       30.06S                  
$$

ABBREVIATIONS USED IN REMARKS
   TC - TEMPERATURES IN CELSIUS
  WCI - WIND CHILL INDEX
   HX - HEAT INDEX
  VSB - VISIBILITY  
$$

  

874 
ASUS43 KDMX 140901
RWRIA 

WEATHER ROUNDUP FOR IOWA
NATIONAL WEATHER SERVICE DES MOINES IA
400 AM CDT THU JUN 14 2018

NOTE: "FAIR" INDICATES FEW OR NO CLOUDS BELOW 12,000 FEET WITH NO
SIGNIFICANT WEATHER AND/OR OBSTRUCTIONS TO VISIBILITY.

* - THESE STATIONS ARE NOT NWS STATIONS...THUS NOT UNDER NWS
QUALITY CONTROL.  THEY ALSO DO NOT REPORT WEATHER SUCH 
AS PRECIPITATION OR FOG.  

IAZ001>003-012>014-020>022-031>034-043>046-141000-
   NORTHWEST IOWA
  
CITY           SKY/WX    TMP DP  RH WIND       PRES   REMARKS
CARROLL *      CLOUDY    64  61  88 E8        29.95R                  
CHEROKEE *     TSTM      65  59  81 E7        29.91F                  
DENISON *      CLOUDY    70  55  60 SE13      29.93S                  
LE MARS *      CLOUDY   N/A N/A N/A SE6       29.87F                  
ORANGE CITY *  CLOUDY    64  57  77 SE9       29.87F                  
SHELDON *      CLOUDY    64  59  82 MISG      29.87F                  
SIOUX CITY     CLOUDY    67  57  70 SE6       29.88F                  
SPENCER        CLOUDY    67  55  65 SE9       29.94F                  
STORM LAKE *   CLOUDY    66  55  68 SE15      29.93F                  
$$
 
IAZ055>058-069>071-079>083-090>094-141000-
   SOUTHWEST IOWA
  
CITY           SKY/WX    TMP DP  RH WIND       PRES   REMARKS
ATLANTIC *     CLOUDY    68  57  68 E5        29.94S                  
AUDUBON *      PTCLDY    66  57  72 SE5       29.96R                  
CLARINDA *     CLOUDY    70  55  60 S7        29.95F                  
COUNCIL BLFS * PTCLDY    66  63  88 SE10      29.90F                  
CRESTON *      PTCLDY    66  57  72 SE9       29.98S                  
HARLAN  *      CLOUDY    66  57  72 SE7       29.96S                  
LAMONI         CLOUDY    66  55  67 SE8       29.98F                  
RED OAK *      CLOUDY    68  55  64 MISG      29.92F                  
SHENANDOAH *   PTCLDY    70  57  64 SE12      29.91F                  
$$
 
IAZ047>049-059>061-072>074-084-141000-
   CENTRAL IOWA
  
CITY           SKY/WX    TMP DP  RH WIND       PRES   REMARKS
AMES           TSTM      60  58  92 E8        30.01R FOG              
ANKENY *       CLOUDY    68  55  64 SE8G15    29.98F                  
BOONE *        CLOUDY    61  57  88 SE17      29.98F                  
CHARITON *     CLOUDY    66  55  68 SE9       29.99F                  
DES MOINES     CLOUDY    69  54  58 SE14      29.96F                  
GRINNELL*      MOCLDY    64  53  67 SE7       30.04R                  
KNOXVILLE *    MOCLDY    66  52  59 SE12      29.99F                  
MARSHALLTOWN   CLOUDY    65  57  75 E8        30.01R                  
NEWTON *       CLOUDY    64  54  68 SE10      30.00F                  
PELLA *        MOCLDY    64  55  74 SE6       30.02S                  
$$
 
IAZ004>006-015-016-023>025-035-036-141000-
   NORTH CENTRAL IOWA
  
CITY           SKY/WX    TMP DP  RH WIND       PRES   REMARKS
ALGONA *       CLOUDY    66  54  63 SE9       29.96F                  
CLARION *      CLOUDY    66  54  63 SE12      29.99F                  
ESTHERVILLE    CLOUDY    63  55  75 SE7       29.95F                  
FORT DODGE *   CLOUDY    62  57  83 SE8       29.98F                  
MASON CITY     PTCLDY    61  55  81 SE7       30.02F                  
FOREST CITY *  FAIR      63  55  77 SE6       29.99F                  
IOWA FALLS *   LGT RAIN  64  58  83 CALM      30.05R                  
$$

IAZ007>011-017>019-026>030-037>042-050>054-066-141000-
   NORTHEAST IOWA
  
CITY           SKY/WX    TMP DP  RH WIND       PRES   REMARKS
CEDAR RAPIDS   FAIR      62  58  86 SE5       30.03F                  
CHARLES CITY * FAIR      61  55  82 SE8       30.03F                  
CLINTON *      FAIR      62  61  96 NE5       30.07S                  
DECORAH *      FAIR      63  57  82 SE5       30.04F                  
DUBUQUE        FAIR      63  54  72 CALM      30.07F                  
MONTICELLO *   FAIR      63  59  88 CALM      30.04F                  
OELWEIN *      FAIR      61  57  88 SE6       30.05S                  
WATERLOO       FAIR      59  56  89 SE3       30.02S                  
$$
 
IAZ064-065-067-068-078-141000-
   EAST CENTRAL IOWA
  
CITY           SKY/WX    TMP DP  RH WIND       PRES   REMARKS
DAVENPORT      FAIR      62  58  86 CALM      30.07F                  
IOWA CITY      FAIR      64  57  78 SE3       30.04F                  
MUSCATINE *      N/A    N/A N/A N/A MISG        N/A                   
QUAD CITIES    FAIR      63  58  83 CALM      30.05F                  
$$
 
IAZ062-063-075>077-085>089-095>099-141000-
   SOUTHEAST IOWA
  
CITY           SKY/WX    TMP DP  RH WIND       PRES   REMARKS
BURLINGTON     CLOUDY    64  52  64 E3        30.05S                  
FAIRFIELD *    MOCLDY    63  54  72 SE8       30.04F                  
FORT MADISON * CLOUDY    64  54  68 S3        30.07S                  
KEOKUK *       CLOUDY    64  54  68 SE7       30.05F                  
OSKALOOSA *    LGT RAIN  62  56  82 SE8       30.04R                  
CENTERVILLE *    N/A     64  54  68 CALM      30.04S                  
OTTUMWA        CLOUDY    65  52  62 SE10      30.03S                  
WASHINGTON *   CLOUDY    61  57  88 SE7       30.06S                  
$$

ABBREVIATIONS USED IN REMARKS
   TC - TEMPERATURES IN CELSIUS
  WCI - WIND CHILL INDEX
   HX - HEAT INDEX
  VSB - VISIBILITY  
$$